Theta_e
296 297 297 298 298 297 296 296 297 297 296 296 296 295 295 296 296 295 294 293 295 295 294 293 293 293 292 290 290 290 290 289 289 290 291 291 290 289 289 288 288 288 288 289 288 288 288 288 289 289 290 291 291 290 290 290 290 290 290 289 290 290 290 290 290 290 290 290 290
295 296 298 299 299 297 296 297 297 296 296 295 295 295 295 296 296 295 294 294 294 294 293 292 293 292 291 290 290 290 289 289 289 290 290 290 289 288 288 288 288 288 288 288 288 288 288 288 288 289 290 290 290 290 290 290 290 289 289 289 289 289 290 290 290 290 290 290 290
294 296 297 298 297 296 296 296 296 295 295 294 294 294 295 295 295 295 294 293 292 292 292 292 292 291 290 289 288 288 288 289 288 289 289 289 288 288 287 288 287 288 289 289 288 288 288 288 289 290 291 290 289 290 290 290 289 289 290 290 289 289 289 290 290 290 290 290 290
294 295 297 297 297 297 297 296 296 295 294 293 292 293 293 293 293 293 292 291 291 291 291 291 291 291 290 289 288 288 288 289 289 288 288 288 288 287 287 287 287 288 288 288 288 288 288 287 289 290 290 290 290 290 290 290 289 289 290 290 290 289 290 289 290 290 289 290 290
293 295 296 297 297 297 297 297 296 295 293 292 292 291 291 291 292 291 291 291 291 291 290 290 290 290 290 289 288 287 287 288 290 290 288 288 288 287 287 287 287 288 288 287 287 287 287 287 288 289 290 290 290 290 290 290 289 289 289 289 289 289 289 289 289 289 289 289 289
294 295 295 296 296 295 295 295 295 294 293 292 292 292 292 291 291 291 292 293 292 290 289 289 290 290 290 288 288 287 287 287 289 288 288 288 287 287 286 286 287 287 287 287 287 287 287 287 289 289 289 290 290 290 289 288 288 288 289 289 289 289 289 289 289 289 289 289 289
294 294 294 294 293 293 293 293 293 293 292 292 293 293 293 292 292 292 292 292 290 289 289 291 291 290 290 288 288 287 287 287 287 286 286 287 287 287 287 288 287 287 287 287 287 287 287 288 289 289 290 290 290 290 289 288 288 288 288 289 289 289 289 289 289 289 289 288 288
293 293 293 292 292 292 292 291 291 292 292 293 294 294 294 293 292 292 291 290 289 289 290 291 289 289 288 288 288 288 287 287 287 286 286 286 286 286 287 287 287 287 287 287 287 287 287 287 288 289 289 289 289 289 289 288 287 288 288 288 288 289 289 289 289 289 288 288 288
292 292 291 290 290 290 290 290 291 292 293 293 294 293 293 292 292 291 290 290 290 290 290 289 288 287 287 287 287 287 287 287 287 286 286 286 286 287 287 287 287 287 287 287 287 287 287 287 288 288 289 288 289 289 289 288 287 287 287 287 288 288 288 288 288 288 287 287 287
292 290 290 289 289 289 289 289 290 292 293 293 292 292 292 293 292 291 291 291 291 290 288 288 287 286 287 287 287 287 287 286 287 286 286 287 287 287 287 287 287 288 288 287 287 287 287 287 288 288 288 288 288 288 288 287 287 286 287 287 287 288 288 288 287 287 287 287 287
291 290 290 290 289 289 289 289 290 291 292 292 290 291 292 293 291 290 290 290 290 289 288 287 286 287 287 287 287 287 286 286 286 286 286 287 288 287 287 287 287 287 287 287 286 286 287 287 288 288 288 288 287 287 287 287 286 286 286 286 287 287 286 287 287 287 287 287 287
291 290 290 289 288 288 289 290 291 291 291 291 290 290 290 291 289 289 289 289 290 289 288 286 286 287 287 287 287 287 287 286 285 286 286 286 286 286 286 286 286 286 286 286 286 286 287 287 287 287 287 287 287 287 287 287 286 286 286 286 286 286 286 286 287 287 287 287 287
291 290 289 288 288 289 290 290 290 290 291 291 290 290 290 289 288 288 289 289 290 289 288 285 286 286 287 287 287 287 286 285 285 286 287 286 286 286 286 286 286 286 286 286 286 286 287 287 287 287 287 287 287 287 287 287 286 286 286 286 286 286 286 287 287 287 287 286 286
290 290 289 288 288 289 290 291 290 290 290 291 290 289 288 287 287 287 288 289 289 288 287 286 286 287 287 286 286 286 285 285 285 285 286 286 286 285 286 286 286 286 286 286 286 286 286 286 286 287 286 286 287 286 286 286 286 285 285 285 285 286 286 287 287 287 287 287 286
290 289 289 288 289 290 291 291 290 290 290 290 289 288 287 286 287 287 288 288 287 287 286 286 286 287 287 286 285 285 284 284 284 285 286 286 285 285 285 286 286 286 286 286 285 285 286 286 287 287 286 286 286 286 286 286 285 285 285 286 286 286 286 287 287 287 287 287 287
290 289 289 289 290 290 290 290 290 290 289 289 288 287 286 286 287 287 287 287 286 285 285 285 286 286 286 286 285 284 284 284 284 285 286 286 286 286 286 286 286 286 286 286 285 285 285 285 286 286 286 286 286 286 286 286 286 286 286 286 286 286 286 287 287 287 287 287 287
289 289 289 289 289 290 290 290 289 289 288 288 287 286 286 286 286 287 288 287 286 285 285 285 285 285 285 286 286 285 285 284 285 286 286 287 287 287 286 286 287 287 286 286 286 286 286 285 285 285 286 286 286 286 286 286 286 286 286 286 286 286 286 287 287 287 287 287 287
289 289 289 289 289 289 289 288 288 287 287 287 286 286 286 285 286 287 288 288 286 285 285 285 284 284 285 285 285 286 286 285 286 286 286 286 286 286 286 286 287 286 286 286 286 286 286 286 285 285 285 285 285 285 285 285 286 286 286 286 286 286 286 287 287 287 287 287 288
289 289 289 289 289 289 289 288 287 287 286 286 286 285 285 285 285 286 286 287 286 286 286 286 284 284 284 285 284 285 287 286 286 286 286 286 286 286 286 286 286 286 285 285 285 285 285 285 285 285 285 285 285 285 285 285 285 286 286 286 286 286 286 287 287 287 287 287 288
290 289 289 289 288 288 288 288 287 286 285 285 285 285 284 284 284 284 285 285 286 285 285 286 285 284 284 284 284 285 286 286 286 286 286 285 285 285 285 285 285 285 285 284 285 284 285 285 285 285 285 285 285 285 285 285 286 286 286 287 287 287 287 287 287 287 287 287 288
290 289 289 288 288 288 287 287 286 285 284 284 284 284 284 284 283 284 285 286 285 285 284 285 285 285 285 284 284 284 285 286 286 285 285 285 285 285 285 285 285 285 285 284 284 284 284 284 284 284 284 283 283 284 285 285 286 286 287 287 287 287 287 287 287 287 287 288 288
290 289 288 287 286 286 285 284 284 284 283 284 284 284 284 283 283 284 284 285 284 284 284 284 285 285 285 285 285 285 284 285 285 285 285 285 285 285 285 285 285 284 284 284 284 284 284 284 283 283 282 282 282 283 284 285 286 286 287 287 287 287 287 286 287 287 287 288 288
289 288 286 285 285 285 285 283 283 283 283 283 283 283 283 283 283 283 283 283 284 284 284 284 285 285 285 284 285 284 284 284 284 284 284 284 284 284 284 284 284 284 284 285 284 282 282 282 281 281 281 281 282 283 285 286 286 287 287 287 287 287 286 285 286 286 287 287 287
288 286 284 284 283 284 284 283 283 283 284 284 283 283 283 283 283 283 282 282 283 283 284 284 284 284 283 283 283 283 283 284 284 284 284 283 283 283 283 283 283 283 284 285 285 284 284 284 284 283 283 283 284 285 287 287 287 287 287 287 287 286 286 286 286 286 286 286 287
286 285 284 283 283 283 283 283 284 284 284 284 283 283 283 283 283 282 282 282 283 283 283 283 283 282 282 282 282 282 282 283 284 284 284 284 284 283 283 283 283 284 284 285 287 289 290 291 290 289 288 287 287 288 288 288 288 288 288 288 287 287 287 286 287 287 287 286 287
284 284 284 283 283 284 284 284 284 284 284 283 283 283 283 283 283 283 283 283 283 282 282 282 282 283 283 283 282 282 282 283 283 284 284 284 284 284 284 284 284 284 284 285 288 291 292 293 294 292 291 289 290 290 290 289 289 289 289 288 288 287 287 286 287 287 287 287 287
284 284 283 283 283 284 284 284 284 284 283 283 283 283 283 282 283 283 283 283 283 282 282 282 282 284 286 284 283 283 283 283 283 283 283 283 284 284 284 284 285 284 284 286 289 292 293 294 294 294 294 293 292 292 291 290 290 289 289 288 288 287 287 286 286 287 287 287 288
284 284 283 283 284 284 284 283 283 283 283 283 283 283 282 282 282 282 282 283 282 282 282 282 282 284 285 284 283 283 283 283 283 283 283 283 283 283 283 284 284 285 286 289 291 293 294 294 294 295 294 294 293 292 291 291 290 289 289 288 288 287 287 286 286 287 287 287 287
284 284 283 284 284 284 283 283 283 284 283 283 282 282 281 281 282 282 282 282 282 282 283 282 283 283 283 283 283 283 283 282 283 283 283 282 282 282 283 284 284 285 287 290 292 293 294 294 294 295 294 294 293 293 292 291 291 290 289 289 288 287 287 287 287 287 287 287 287
284 284 284 284 284 284 284 283 284 283 283 282 282 282 281 281 282 282 282 282 282 283 283 282 283 283 283 283 283 283 283 283 283 282 282 282 282 283 283 285 285 286 287 290 292 293 294 294 294 294 295 295 294 293 292 291 291 290 289 288 288 287 287 286 286 286 286 286 286
283 284 285 285 284 284 284 283 283 282 282 282 281 281 282 282 282 282 282 282 282 283 283 282 282 282 282 283 282 282 283 283 283 282 282 282 283 284 285 285 285 285 287 290 291 293 293 294 294 294 295 295 294 293 292 291 290 289 289 288 287 287 287 286 286 286 286 286 286
283 284 285 285 285 284 283 282 281 281 281 281 281 281 282 282 282 281 281 281 281 282 282 281 281 282 282 282 282 282 282 282 282 283 283 283 283 284 284 285 284 285 287 290 291 292 293 294 294 294 295 295 294 293 292 291 290 289 288 288 287 286 286 286 286 286 286 286 286
283 283 284 285 284 283 282 281 281 280 280 280 280 281 281 281 281 280 280 280 281 281 281 281 282 282 282 282 283 283 283 283 283 284 285 285 285 284 284 285 285 286 288 290 292 293 293 294 294 294 295 295 294 293 292 290 289 288 288 287 287 287 286 286 286 286 286 286 286
283 283 284 284 284 282 281 280 280 280 280 280 280 280 280 280 280 280 280 280 280 280 280 281 282 282 282 283 283 283 284 285 285 285 284 284 284 284 284 284 285 287 289 291 292 293 293 294 294 294 294 294 293 292 291 289 289 288 287 287 287 287 286 286 286 286 285 286 286
283 283 284 283 283 282 281 280 279 279 280 280 280 280 280 280 280 281 281 282 281 280 280 280 281 281 282 282 282 283 283 284 284 284 284 284 283 283 284 284 285 287 289 291 292 292 293 293 294 294 294 294 292 291 290 289 288 287 287 286 286 286 286 286 286 285 285 285 286
283 284 284 283 282 281 280 280 279 279 280 281 281 281 280 280 280 280 281 282 282 281 280 280 280 281 281 282 282 283 284 284 284 284 284 284 284 283 284 284 285 286 288 290 291 292 293 293 293 294 293 293 292 291 289 288 287 287 286 286 286 286 286 286 286 285 285 285 285
284 284 284 284 283 281 280 280 279 280 280 281 281 281 281 280 280 279 280 282 282 281 281 281 281 281 282 283 283 283 284 284 284 284 284 285 285 284 284 284 285 286 287 289 290 291 292 293 293 293 293 292 291 290 289 288 287 287 286 286 286 286 286 286 286 286 285 284 285
283 284 284 284 283 282 281 280 280 281 281 282 281 281 280 280 280 279 280 283 282 281 282 282 282 282 283 283 283 284 284 284 284 284 284 284 285 284 284 284 285 285 287 288 290 291 291 292 293 293 292 291 290 289 288 287 287 286 286 286 286 286 286 286 286 286 286 285 286
283 283 283 284 283 282 281 280 281 281 282 282 281 280 279 279 280 280 281 283 282 282 282 282 283 283 284 284 284 284 284 283 284 284 284 284 284 285 285 285 285 286 287 288 289 291 291 292 292 293 292 291 290 289 288 287 287 286 286 286 286 286 286 287 287 287 286 286 287
283 283 282 283 282 282 281 281 281 282 282 282 282 281 280 280 281 281 282 283 282 282 282 283 283 284 284 285 285 284 284 284 284 284 284 284 285 286 287 286 286 286 287 289 290 290 291 292 292 292 292 291 290 289 288 287 286 286 286 286 286 286 287 287 287 287 287 286 288
281 281 282 282 282 282 282 282 282 281 281 281 281 281 282 282 282 282 282 282 281 282 282 283 283 283 284 285 285 284 284 284 284 284 284 285 285 286 286 286 286 286 286 287 288 289 290 291 291 292 292 291 290 289 288 287 286 286 286 286 286 286 286 287 287 287 287 287 287
Wind_Speed
6 6 6 5 5 5 4 4 4 5 5 5 6 5 5 5 5 4 3 3 3 3 3 2 2 2 2 2 2 2 2 2 2 2 2 2 2 2 2 2 2 2 2 2 2 1 1 1 1 1 1 1 1 1 1 1 1 2 2 2 2 2 3 3 4 4 4 4 4
6 6 6 5 5 4 4 4 4 4 4 4 5 5 5 5 5 5 4 3 3 3 3 2 2 2 2 3 2 2 2 3 2 2 2 2 2 2 2 2 2 2 2 2 2 2 1 1 1 1 1 1 1 1 1 1 2 2 2 3 2 2 2 3 4 4 4 4 4
6 6 6 5 5 5 5 5 5 5 5 4 4 4 5 4 5 5 4 3 3 3 2 2 2 2 3 3 2 2 2 2 3 2 2 2 2 2 2 2 2 2 2 2 2 2 2 2 1 1 1 1 1 1 1 1 2 2 2 3 2 2 2 3 3 3 3 3 4
6 6 7 7 8 8 7 6 7 7 6 4 4 4 4 4 4 3 3 3 3 2 2 2 2 2 2 3 3 2 2 2 3 2 2 2 2 2 2 2 2 3 3 2 2 2 2 2 1 1 1 1 1 1 2 1 2 2 2 2 2 2 3 3 3 3 3 4 4
6 7 7 7 8 8 7 7 8 8 6 5 4 3 3 3 3 3 3 3 3 3 3 3 2 2 2 2 3 3 2 2 2 2 2 2 2 2 2 3 3 3 2 2 3 3 2 2 1 1 1 1 1 2 2 1 2 2 2 2 2 2 3 3 3 3 3 4 4
7 7 6 6 7 6 6 6 8 8 7 5 5 5 4 3 3 3 4 4 3 3 3 3 3 2 2 2 3 2 2 2 2 2 2 2 2 2 3 3 3 3 2 3 3 3 3 2 1 1 1 1 1 2 1 1 2 2 3 3 3 3 3 4 3 3 4 5 5
8 7 6 6 6 5 5 5 6 7 6 6 7 7 6 5 5 5 5 4 3 3 3 3 3 3 3 3 2 2 2 2 2 2 2 2 2 3 3 3 3 3 3 3 3 3 2 2 1 1 1 1 1 1 1 1 2 3 4 4 4 3 4 4 4 4 4 6 7
6 6 6 6 6 6 6 7 7 6 6 6 7 8 8 7 7 6 5 4 4 3 3 3 3 4 4 3 3 3 2 2 2 2 2 2 3 3 3 3 3 3 3 3 3 3 2 2 1 1 1 1 1 2 2 2 2 3 5 6 5 4 4 4 4 4 5 6 7
5 5 5 5 5 6 6 7 8 8 7 7 7 7 7 7 7 7 6 4 4 4 3 3 3 4 4 3 3 3 3 3 3 3 3 3 3 3 3 3 3 3 3 3 2 2 2 1 1 1 1 1 2 2 3 2 3 4 5 6 5 5 5 5 5 5 6 6 7
6 6 5 5 5 5 6 6 7 7 8 7 7 6 7 7 7 6 5 4 4 4 4 3 3 4 4 3 3 3 3 3 3 3 3 3 3 3 3 2 2 2 2 2 2 2 2 1 1 1 1 2 3 3 4 3 4 5 6 5 6 7 7 7 6 6 6 7 8
8 7 7 6 6 6 6 6 6 6 6 7 6 6 6 6 6 5 4 4 4 4 4 3 4 4 4 3 3 3 3 3 3 3 3 3 3 3 3 2 2 1 1 1 1 1 1 1 1 2 2 2 3 4 4 4 5 6 6 6 7 7 8 8 7 7 7 7 8
8 8 7 7 7 7 7 7 6 6 6 7 7 6 6 5 5 5 5 5 5 5 4 3 4 4 4 3 3 3 3 3 3 3 3 4 3 3 3 2 2 2 1 1 1 1 1 1 2 3 3 4 3 4 4 5 5 6 7 8 8 8 8 9 8 7 7 7 8
8 8 7 7 7 7 7 7 6 6 6 7 7 6 5 4 4 5 5 6 5 4 3 3 3 3 3 3 3 3 3 4 4 3 3 3 3 3 2 2 2 2 2 2 2 2 1 2 2 3 4 5 4 4 5 5 6 7 8 8 8 8 9 9 9 8 7 8 8
8 9 8 8 8 7 7 7 6 6 6 7 7 6 5 4 4 4 4 5 5 4 3 3 2 3 3 4 4 4 4 4 4 4 3 3 2 2 2 2 2 2 2 2 2 2 2 3 3 4 4 5 6 6 6 6 6 7 8 8 9 9 9 9 9 8 8 8 9
9 9 9 8 8 8 7 7 6 6 7 7 6 5 4 4 3 3 3 4 4 3 3 3 3 3 3 4 4 4 4 4 4 3 3 2 2 2 2 2 2 2 2 2 2 3 3 4 4 4 5 6 6 7 7 7 7 7 8 8 9 9 10 10 9 9 9 9 9
9 9 9 9 8 8 7 7 6 6 6 6 5 4 4 3 3 3 3 4 3 3 3 3 3 3 3 4 4 4 4 4 4 3 3 2 2 2 2 3 3 3 3 3 3 3 4 4 4 5 5 6 7 7 7 7 7 8 8 9 9 9 10 10 10 10 9 10 10
10 9 9 9 9 9 8 7 6 6 6 6 5 4 4 3 3 3 3 4 3 3 4 4 4 4 4 4 5 4 4 3 3 3 2 2 2 3 3 4 4 3 3 3 4 4 4 4 4 5 5 6 7 7 8 8 8 8 9 9 9 10 10 10 10 10 10 10 11
10 10 9 9 9 9 9 8 7 6 6 6 5 4 4 3 4 3 4 4 4 5 5 5 4 4 4 5 4 4 3 3 3 3 3 3 3 3 4 4 4 4 4 4 4 5 5 5 5 5 5 6 7 7 8 8 8 9 9 10 10 10 10 10 10 10 10 11 11
10 10 10 10 10 9 9 9 8 7 6 5 5 4 4 4 4 4 4 4 5 5 5 5 5 4 4 4 4 4 3 3 3 3 3 3 3 4 4 5 4 4 4 4 4 5 5 5 5 5 6 6 7 7 8 8 9 9 10 10 10 10 10 10 10 10 10 10 11
11 11 10 10 9 9 9 8 7 6 5 5 5 5 5 4 4 5 5 5 5 5 5 5 4 4 4 4 4 3 3 2 3 3 3 4 4 4 5 5 4 4 4 4 4 5 5 6 6 6 6 7 7 8 8 9 9 9 10 9 10 10 10 10 10 10 10 10 11
11 11 10 9 8 8 7 7 6 5 5 5 5 5 5 5 5 5 6 6 5 5 4 4 4 4 4 4 4 3 3 2 3 3 4 4 4 5 5 4 4 4 4 4 4 5 5 6 6 6 7 7 8 8 9 9 9 10 10 9 9 10 10 10 10 10 10 10 11
10 9 8 8 7 7 6 5 5 5 5 5 5 5 5 5 5 5 5 4 4 5 4 4 4 4 4 4 4 3 3 2 3 3 4 4 4 5 4 4 4 4 4 5 5 5 6 6 7 7 7 7 8 9 9 9 9 10 10 10 10 10 10 9 10 10 10 10 10
9 7 6 6 6 6 6 5 5 5 5 5 5 5 5 5 5 4 4 4 4 4 4 3 3 3 3 3 3 3 3 2 3 3 4 4 4 4 4 3 4 4 5 5 5 5 5 6 6 7 7 7 8 9 10 10 10 9 10 10 10 10 9 9 9 9 9 9 9
8 6 5 5 5 5 6 5 5 5 5 5 5 5 5 5 4 4 4 4 4 4 4 3 2 3 3 3 3 3 3 3 4 4 4 4 4 4 4 3 4 4 5 5 5 5 6 6 6 6 7 7 8 8 9 9 9 9 9 10 10 9 9 8 8 8 9 9 9
7 7 6 5 5 5 5 6 6 6 5 5 5 4 4 4 4 4 4 4 4 4 3 3 2 2 2 2 3 3 3 4 4 4 4 4 4 4 3 3 4 4 4 5 7 9 10 9 8 6 6 6 7 7 8 8 9 9 9 9 9 9 9 9 9 8 8 9 8
7 7 6 6 6 6 6 6 6 5 5 4 4 4 3 3 3 3 3 3 3 3 3 3 2 2 3 3 3 3 4 4 4 4 4 4 4 4 4 4 4 4 4 6 9 11 13 13 13 11 8 5 6 6 7 7 8 9 9 9 9 9 8 9 9 8 8 8 8
7 7 6 6 6 6 6 5 5 4 4 3 3 3 3 3 3 3 3 3 3 3 2 2 2 3 3 3 3 4 4 4 4 4 4 5 5 5 5 5 4 4 5 8 11 12 13 14 15 14 12 8 7 7 7 7 8 8 8 8 8 8 8 8 9 9 9 8 8
7 7 6 6 6 5 5 4 4 3 3 3 3 3 3 3 3 3 3 3 2 2 2 2 2 2 2 2 3 4 4 4 4 4 4 4 5 6 6 6 5 5 7 10 12 13 14 15 15 15 15 12 10 8 7 7 7 7 7 7 7 7 8 8 8 8 8 9 9
8 7 7 6 6 5 4 4 4 3 3 3 3 3 3 3 3 3 3 2 2 2 2 2 2 2 2 3 3 4 4 4 4 4 4 4 5 6 6 7 7 7 9 12 13 14 14 15 16 16 16 15 11 8 7 6 7 7 6 6 6 7 7 7 7 8 8 9 9
7 7 7 7 6 5 4 4 3 3 3 2 3 3 3 3 3 3 3 3 3 3 3 2 2 2 3 4 3 3 4 4 4 4 4 5 6 7 7 7 7 8 10 12 14 14 15 16 16 17 17 17 14 11 8 6 6 6 6 6 6 7 7 7 8 8 9 9 9
6 6 6 6 5 5 4 3 3 2 2 2 3 3 3 3 3 3 3 3 3 3 2 2 3 3 4 3 3 3 4 4 4 4 5 6 7 8 8 8 8 8 10 13 14 15 16 16 17 17 17 17 15 11 8 7 7 6 6 6 7 7 7 8 8 9 9 10 10
6 6 6 6 5 4 3 2 2 2 3 3 3 3 3 4 3 3 3 2 2 2 2 3 3 4 4 4 4 4 5 5 5 5 6 6 7 7 8 8 8 9 10 13 14 15 16 17 17 18 18 18 15 12 10 8 7 7 7 7 8 8 8 8 8 9 10 10 10
5 5 5 5 4 3 3 2 2 3 3 3 3 3 3 3 3 2 2 2 2 3 4 4 4 5 4 4 4 5 5 6 6 7 7 7 7 7 8 8 8 9 11 14 15 16 17 17 18 18 18 18 15 13 10 8 7 6 7 7 8 8 9 9 9 9 10 11 10
5 5 4 4 4 3 3 3 3 3 3 3 3 3 3 3 3 3 3 3 3 3 3 4 4 4 4 4 4 5 5 6 6 6 7 7 7 7 8 8 7 9 12 14 16 17 17 18 18 18 19 18 15 12 9 8 7 7 7 8 9 9 9 9 10 10 10 11 10
5 5 4 4 3 3 3 3 3 3 3 3 4 4 4 4 4 4 4 3 3 3 2 3 3 3 3 4 4 5 6 7 7 7 7 7 7 7 9 9 9 11 13 16 17 18 18 18 19 19 19 17 13 10 8 8 8 8 9 10 10 10 10 10 10 9 10 10 10
5 5 5 4 4 3 4 4 3 3 3 4 4 4 4 4 4 4 3 3 3 3 3 3 2 3 3 4 5 6 7 7 8 8 7 7 7 8 9 10 11 12 14 16 17 18 18 19 19 19 18 15 11 8 7 7 7 8 9 10 10 11 11 10 10 9 9 9 10
5 5 5 4 4 4 4 4 4 4 4 5 5 5 4 4 3 3 3 3 3 3 3 3 3 4 5 5 6 6 7 7 7 8 8 8 8 9 10 11 12 13 14 16 17 18 19 19 19 19 17 14 10 8 7 7 7 8 9 10 11 11 10 10 10 9 9 9 9
5 5 5 5 5 4 4 4 4 5 5 6 5 4 4 3 3 3 3 4 4 4 4 4 4 5 6 6 6 7 7 7 7 8 8 9 9 9 10 12 12 13 13 15 17 18 19 19 19 19 17 13 11 9 7 7 7 8 9 9 10 10 10 8 8 8 9 9 11
5 5 5 5 5 5 5 5 5 6 6 5 4 4 3 3 3 3 3 4 4 4 4 4 5 5 6 6 6 6 7 7 7 8 9 9 10 10 11 12 13 13 13 15 17 18 19 19 19 19 18 15 11 9 7 7 8 9 9 9 9 10 9 8 8 8 8 10 13
5 5 5 5 5 5 5 5 6 6 5 5 4 4 4 3 3 3 3 3 3 4 4 5 6 6 6 6 6 7 7 8 8 8 9 10 10 12 13 13 13 14 14 15 17 18 19 19 20 20 18 14 11 8 7 7 8 9 9 9 9 9 9 8 8 7 8 9 11
5 5 5 5 5 5 5 6 6 5 5 4 5 4 4 3 3 3 3 3 4 4 4 5 6 7 7 6 6 7 8 9 9 9 9 10 11 12 13 13 13 13 14 14 16 18 19 19 20 20 18 14 11 8 7 7 8 9 10 10 9 8 8 8 8 7 7 8 8
Wind_Direction
171 173 174 171 166 161 157 156 151 148 147 149 154 157 157 151 147 148 152 152 151 153 155 157 153 147 146 155 159 156 152 149 154 161 165 161 170 175 177 176 176 178 180 185 185 189 190 192 192 199 213 222 230 238 240 232 221 219 223 229 237 239 242 249 259 262 261 260 260
174 175 173 168 160 152 144 144 144 144 147 152 153 155 155 150 148 149 154 159 155 151 148 149 151 151 153 162 164 160 154 151 156 160 167 170 180 183 182 182 184 187 186 182 184 185 184 182 187 191 196 207 220 233 237 227 219 224 232 236 239 239 244 253 263 266 267 267 266
170 169 167 163 158 153 149 148 150 151 152 153 151 150 149 147 146 148 152 155 148 143 140 147 156 157 158 159 160 159 156 153 154 158 166 178 185 189 189 186 188 191 192 182 184 185 182 182 192 195 194 192 210 232 239 225 221 232 245 250 249 248 253 264 271 272 271 273 271
167 167 167 168 166 162 159 156 156 156 155 152 147 144 141 140 138 140 141 139 139 145 152 155 156 158 158 155 155 156 157 156 156 161 169 181 188 191 192 189 189 192 193 187 187 186 185 187 197 200 198 198 220 243 253 240 232 241 253 260 260 262 268 275 278 278 277 278 276
174 175 175 174 171 167 161 155 154 154 152 147 143 141 138 135 133 132 134 139 153 161 162 152 149 152 153 149 149 150 153 162 165 167 174 185 191 193 192 193 194 192 189 189 189 188 188 192 196 196 196 203 227 250 260 254 251 256 264 269 269 271 276 281 281 280 279 280 280
178 180 179 175 169 162 155 150 150 149 148 147 146 146 147 147 144 146 150 156 159 155 149 145 146 148 148 144 143 145 151 161 170 174 180 188 191 192 194 198 197 193 187 187 187 188 190 195 196 196 198 209 241 252 250 238 259 273 281 282 278 278 280 281 282 282 282 281 282
174 173 172 169 162 155 149 147 144 143 144 148 151 154 156 158 156 155 155 152 146 143 147 153 155 156 154 151 148 151 156 163 175 184 190 193 194 196 197 197 194 192 188 185 184 185 187 195 198 217 241 257 270 262 245 230 265 283 289 290 287 285 284 282 281 282 282 281 281
165 165 164 160 157 152 149 147 145 144 147 155 159 160 160 159 158 155 150 144 147 154 158 158 161 159 156 153 155 159 164 173 184 192 197 199 199 201 201 200 195 190 185 184 182 181 181 189 197 225 265 288 289 282 272 255 273 283 287 289 289 287 285 284 282 280 279 280 279
159 157 153 149 150 149 149 149 150 152 155 161 163 161 160 159 157 154 151 154 158 158 156 156 156 152 149 150 158 165 174 181 187 192 197 201 202 201 200 198 196 188 181 177 176 175 176 187 200 226 251 270 282 287 286 277 280 282 284 285 286 286 285 283 281 278 276 276 276
162 158 152 148 149 147 147 148 151 153 155 157 158 158 158 159 157 157 157 158 151 149 152 156 150 147 148 157 167 176 183 188 190 193 196 203 202 200 196 194 198 197 185 171 169 170 174 188 229 255 263 267 276 281 282 278 279 279 280 282 285 287 287 284 281 278 275 273 273
164 160 157 154 151 148 146 146 150 152 152 152 154 156 158 159 159 158 154 144 143 151 158 154 148 151 158 169 179 186 189 192 193 194 198 202 200 196 192 190 200 214 216 186 171 173 183 208 256 270 272 271 272 275 276 275 275 276 277 279 282 285 285 284 282 279 275 273 272
161 158 154 149 148 148 149 150 152 153 154 154 156 158 161 161 159 154 148 143 150 155 156 149 150 157 167 177 187 191 192 193 196 199 200 199 195 191 190 191 202 216 225 208 186 187 205 229 256 270 275 276 274 274 274 273 274 275 277 278 280 280 281 282 281 280 278 277 276
155 152 149 146 148 150 152 153 154 156 157 158 160 161 162 161 158 153 150 151 154 153 151 147 153 163 174 184 189 191 193 194 199 201 200 193 189 188 190 199 209 221 227 216 198 199 217 233 246 261 270 275 275 275 273 272 272 274 276 279 279 279 279 279 279 279 279 279 277
151 149 149 149 151 153 154 155 156 159 161 161 163 161 159 157 158 155 153 153 153 151 150 152 164 178 186 190 190 191 193 194 197 197 195 187 184 187 197 216 222 228 230 223 209 211 222 236 243 252 262 270 273 274 273 270 269 270 273 276 277 278 278 279 279 279 279 278 277
151 151 151 152 155 157 157 158 159 161 162 163 163 160 156 154 158 156 151 148 150 149 151 159 179 192 197 194 193 192 192 193 193 190 186 182 184 192 211 232 234 234 234 231 223 222 227 237 243 249 256 264 270 272 272 269 267 267 268 270 272 275 276 278 278 278 277 276 277
153 154 154 155 157 159 159 160 160 161 163 163 161 158 156 155 155 153 150 149 148 151 160 176 186 193 198 199 195 192 191 191 186 183 180 185 197 210 223 236 240 239 237 236 238 237 237 238 243 248 253 259 265 269 270 269 268 266 266 266 267 269 271 273 274 275 274 274 275
157 158 159 160 161 161 162 161 160 161 162 161 160 159 160 156 154 159 161 159 157 165 178 188 189 190 191 195 194 193 191 187 182 179 184 198 213 224 233 238 241 239 237 238 246 250 251 248 247 247 249 254 260 264 267 268 267 267 266 265 265 265 266 268 271 273 273 273 273
161 162 163 163 163 163 162 161 161 162 162 160 161 163 163 158 160 166 172 171 172 176 182 187 189 188 188 188 191 193 190 182 182 186 194 206 218 228 236 242 243 239 236 235 244 253 259 260 257 253 251 252 256 260 263 264 265 265 265 266 265 264 265 266 268 269 271 271 271
164 165 166 167 166 165 163 162 162 162 162 161 161 161 164 167 168 171 178 185 187 187 184 181 183 186 187 184 186 189 189 181 186 195 205 212 220 228 237 242 243 240 235 234 243 251 258 263 263 261 259 257 258 260 260 261 263 263 264 265 265 264 264 264 264 264 265 266 268
167 168 169 170 167 164 163 162 161 160 158 157 158 163 169 176 177 181 185 193 194 192 187 181 179 181 182 179 180 184 188 185 191 203 213 216 222 229 234 239 242 241 237 235 242 249 256 261 262 262 260 260 261 262 262 261 262 262 262 263 263 263 263 262 262 262 262 262 264
169 170 169 166 163 161 160 158 155 152 152 155 163 169 176 179 186 191 194 193 190 189 189 186 181 179 178 177 178 182 186 190 197 208 218 222 227 231 234 236 241 244 244 240 244 249 254 258 260 260 259 257 258 260 261 263 263 263 262 262 262 262 261 261 261 262 262 262 263
169 167 162 157 156 155 152 148 145 147 151 159 168 175 179 184 192 196 196 189 185 188 191 192 186 182 179 178 178 181 184 192 202 213 222 227 233 236 236 236 239 245 249 248 247 249 252 256 257 255 253 253 254 256 258 260 262 263 264 264 264 263 262 260 261 262 262 263 263
162 155 148 145 145 145 143 141 142 147 155 165 174 181 185 189 192 193 190 186 189 192 195 196 191 187 183 180 179 182 189 202 214 220 224 228 236 239 239 233 235 241 247 250 249 247 249 254 252 249 246 246 248 251 254 256 258 261 263 265 265 264 263 261 261 261 262 262 263
148 142 138 136 138 140 141 141 146 155 165 175 181 183 186 187 185 184 185 188 194 196 197 198 194 188 183 181 184 190 200 213 227 232 232 228 232 235 236 232 234 239 244 249 246 244 244 247 244 241 239 238 242 247 250 252 254 257 260 264 266 266 265 263 261 261 261 262 261
139 137 137 138 141 142 144 148 157 167 176 181 181 181 181 181 179 179 182 188 194 196 196 194 190 185 183 185 191 198 206 217 230 241 247 246 241 238 237 239 240 241 243 247 252 255 257 261 257 249 239 235 241 245 249 250 252 254 257 260 263 265 267 267 264 262 260 260 259
136 138 140 144 145 147 152 161 169 173 176 175 174 176 178 178 176 177 181 187 192 193 191 185 187 188 187 186 193 201 209 217 223 234 246 256 259 257 252 249 248 244 244 249 257 262 266 271 273 272 266 251 251 254 257 257 254 254 255 257 259 262 265 269 268 266 262 260 259
139 142 145 146 147 154 162 169 170 171 171 170 173 176 176 174 173 177 183 187 189 187 186 185 193 195 193 187 196 206 214 218 220 225 233 246 257 261 262 260 256 250 249 253 260 266 270 275 278 281 281 275 269 265 265 265 260 256 254 254 255 256 258 262 266 268 269 268 265
147 147 147 146 153 161 166 166 168 172 173 173 173 170 167 165 172 181 187 190 187 187 189 193 194 192 190 193 207 214 219 223 222 224 229 236 246 253 257 261 259 256 256 259 265 270 275 279 282 284 285 284 280 273 266 264 262 259 255 253 253 253 253 255 261 266 271 274 272
150 149 148 153 160 163 166 170 177 177 173 168 163 158 158 166 177 186 193 196 199 201 200 193 182 180 192 208 216 220 224 228 227 227 230 236 244 248 252 256 258 260 262 265 270 274 278 281 283 284 285 285 283 279 272 265 265 263 261 257 256 254 254 255 260 265 271 275 276
150 150 152 158 160 164 171 179 177 170 161 154 153 155 162 174 187 196 202 207 212 210 199 172 171 188 205 215 219 225 232 235 230 228 231 239 246 250 253 254 256 259 264 268 272 276 279 281 283 283 284 284 283 281 277 270 266 264 263 262 258 255 255 257 261 265 269 273 275
150 151 153 155 159 165 172 174 164 155 153 153 157 165 175 189 201 205 206 206 210 202 184 161 183 205 218 221 224 233 240 244 239 235 235 240 248 254 257 259 258 261 265 269 273 276 278 280 281 282 283 284 284 282 278 273 267 264 262 261 257 255 255 258 261 264 266 269 271
148 149 150 152 158 162 163 157 154 154 156 160 169 180 191 201 207 207 205 202 199 189 182 183 202 218 228 231 231 236 242 246 245 242 240 241 248 255 260 263 262 264 267 270 273 275 277 278 280 281 283 284 284 282 278 273 268 263 260 257 256 255 255 259 263 265 266 265 266
145 146 148 151 153 154 153 156 159 161 165 172 184 193 202 209 214 214 211 208 198 195 198 203 211 221 229 232 235 239 242 244 246 248 249 249 252 257 262 266 265 266 268 270 273 275 276 278 280 281 283 285 284 282 278 272 268 264 261 259 257 256 256 258 261 263 264 263 262
146 147 148 151 149 150 155 162 165 166 173 185 200 206 208 213 219 220 216 207 200 199 202 206 210 216 222 224 232 242 249 253 254 254 254 254 255 259 263 265 266 267 269 271 274 276 278 279 280 281 283 284 283 281 276 270 267 265 263 263 262 261 259 258 259 260 260 259 259
151 152 154 156 155 158 163 169 169 173 183 199 214 217 217 219 222 221 216 202 194 197 206 212 213 217 224 229 233 242 251 259 260 259 258 257 257 260 263 265 266 267 269 271 274 276 278 279 280 281 282 283 282 278 273 269 266 265 264 265 265 264 262 261 259 258 256 255 255
158 158 161 165 168 170 172 174 173 181 195 212 221 223 224 222 223 220 212 197 192 198 210 215 214 221 230 237 237 240 245 251 257 260 261 259 259 260 263 265 267 269 270 272 274 276 278 278 279 280 281 281 279 275 270 267 266 266 265 265 266 265 265 263 262 258 254 251 252
166 166 167 172 177 179 178 176 178 192 209 221 224 225 224 223 223 218 205 188 193 206 215 215 218 226 233 237 241 243 244 245 252 258 262 262 260 261 264 267 269 270 271 273 275 276 277 278 278 279 279 280 277 273 269 266 266 265 265 266 266 265 265 265 263 259 254 247 248
176 176 176 179 183 183 181 179 190 206 218 226 225 223 219 216 219 216 205 191 197 210 219 223 227 233 237 239 245 249 249 247 249 254 259 262 260 261 263 268 270 270 271 272 274 275 275 276 276 277 278 278 276 273 270 267 266 266 266 267 268 266 265 264 263 260 254 246 247
185 187 187 188 188 186 186 191 204 214 221 227 228 223 218 213 216 214 205 193 198 208 220 231 236 240 242 243 251 255 256 252 249 251 256 259 259 261 263 267 269 270 270 271 272 273 274 275 276 277 277 277 276 274 270 268 267 267 267 268 270 269 266 262 261 259 256 250 251
189 191 192 194 193 192 194 203 214 219 223 226 229 227 223 217 219 217 210 201 204 213 224 236 244 248 250 252 257 261 262 261 255 252 254 257 260 262 265 267 269 270 271 271 272 274 275 276 276 277 277 277 274 271 268 267 267 267 267 267 269 270 269 264 260 258 257 255 255
189 192 195 200 199 198 203 213 222 225 225 225 230 230 226 220 222 220 217 216 220 225 233 243 249 254 256 259 260 263 265 267 263 259 257 258 262 264 266 267 269 271 272 273 274 275 275 276 276 276 276 275 272 268 263 262 264 265 266 266 267 269 270 270 265 262 259 259 259